| time (UTC) | temp F | wind direction | speed MPH | gust MPH | rain 1hr in | rain 24hr in | rain mn in | humidity % | barometer mb |
| 20260902135020 | 80 | 206 | 0.0 | 0.0 | 0.00 | 0.00 | 0.00 | 85 | 1016.2 |
| 20260902134534 | 79 | 165 | 0.0 | 2.0 | 0.00 | 0.00 | 0.00 | 86 | 1017.0 |
| 20260902133027 | 77 | 117 | 0.0 | 2.0 | 0.00 | 0.00 | 0.00 | 88 | 1017.0 |
| 20260902132814 | 78 | 69 | 0.0 | 1.0 | 0.00 | 0.00 | 0.00 | 89 | 1016.2 |
| 20260902131540 | 75 | 103 | 0.0 | 0.0 | 0.00 | 0.00 | 0.00 | 90 | 1016.8 |
| 20260902130704 | 74 | 100 | 0.0 | 0.0 | 0.00 | 0.00 | 0.00 | 91 | 1015.9 |
| 20260902130024 | 73 | 103 | 0.0 | 0.0 | 0.00 | 0.00 | 0.00 | 90 | 1016.7 |
| 20260902125706 | 74 | 100 | 0.0 | 0.0 | 0.00 | 0.00 | 0.00 | 91 | 1015.9 |
| 20260902124652 | 73 | 100 | 0.0 | 0.0 | 0.00 | 0.00 | 0.00 | 91 | 1015.8 |
| 20260902124516 | 72 | 103 | 0.0 | 0.0 | 0.00 | 0.00 | 0.00 | 90 | 1016.7 |
| 20260902123707 | 73 | 100 | 0.0 | 0.0 | 0.00 | 0.00 | 0.00 | 90 | 1015.7 |
| 20260902123030 | 72 | 103 | 0.0 | 0.0 | 0.00 | 0.00 | 0.00 | 90 | 1016.5 |
| 20260902122719 | 73 | 100 | 0.0 | 0.0 | 0.00 | 0.00 | 0.00 | 90 | 1015.7 |
| 20260902121737 | 73 | 100 | 0.0 | 0.0 | 0.00 | 0.00 | 0.00 | 90 | 1015.6 |
| 20260902121531 | 72 | 103 | 0.0 | 0.0 | 0.00 | 0.00 | 0.00 | 89 | 1016.3 |
| 20260902120037 | 73 | 103 | 0.0 | 0.0 | 0.00 | 0.00 | 0.00 | 89 | 1016.2 |
| 20260902115631 | 73 | 100 | 0.0 | 0.0 | 0.00 | 0.00 | 0.00 | 89 | 1015.5 |
| 20260902114534 | 73 | 103 | 0.0 | 0.0 | 0.00 | 0.00 | 0.00 | 88 | 1016.2 |
| 20260902113428 | 73 | 100 | 0.0 | 0.0 | 0.00 | 0.00 | 0.00 | 88 | 1015.4 |
| 20260902113028 | 73 | 103 | 0.0 | 0.0 | 0.00 | 0.00 | 0.00 | 87 | 1016.1 |
| 20260902112424 | 73 | 100 | 0.0 | 0.0 | 0.00 | 0.00 | 0.00 | 88 | 1015.2 |
| 20260902111509 | 72 | 103 | 0.0 | 1.0 | 0.00 | 0.00 | 0.00 | 87 | 1016.1 |
| 20260902111440 | 73 | 100 | 0.0 | 0.0 | 0.00 | 0.00 | 0.00 | 88 | 1015.2 |
| 20260902110418 | 73 | 100 | 0.0 | 0.0 | 0.00 | 0.00 | 0.00 | 87 | 1015.3 |
| 20260902110028 | 73 | 103 | 0.0 | 0.0 | 0.00 | 0.00 | 0.00 | 87 | 1016.1 |
| 20260902104527 | 73 | 103 | 0.0 | 0.0 | 0.00 | 0.00 | 0.00 | 86 | 1016.2 |
| 20260902104239 | 73 | 100 | 0.0 | 0.0 | 0.00 | 0.00 | 0.00 | 86 | 1015.3 |
| 20260902103253 | 73 | 100 | 0.0 | 0.0 | 0.00 | 0.00 | 0.00 | 86 | 1015.3 |
| 20260902103022 | 73 | 103 | 0.0 | 0.0 | 0.00 | 0.00 | 0.00 | 85 | 1016.1 |
| 20260902102259 | 74 | 100 | 0.0 | 0.0 | 0.00 | 0.00 | 0.00 | 85 | 1015.3 |
| 20260902101519 | 73 | 103 | 0.0 | 0.0 | 0.00 | 0.00 | 0.00 | 85 | 1016.1 |
| 20260902101323 | 74 | 100 | 0.0 | 0.0 | 0.00 | 0.00 | 0.00 | 85 | 1015.2 |
| 20260902100309 | 74 | 100 | 0.0 | 0.0 | 0.00 | 0.00 | 0.00 | 85 | 1015.2 |
| 20260902100017 | 74 | 103 | 0.0 | 2.0 | 0.00 | 0.00 | 0.00 | 84 | 1016.0 |
| 20260902095318 | 74 | 100 | 0.0 | 0.0 | 0.00 | 0.00 | 0.00 | 85 | 1015.2 |
| 20260902094515 | 73 | 103 | 0.0 | 0.0 | 0.00 | 0.00 | 0.00 | 83 | 1016.1 |
| 20260902094316 | 74 | 100 | 0.0 | 0.0 | 0.00 | 0.00 | 0.00 | 84 | 1015.4 |
| 20260902093251 | 74 | 100 | 0.0 | 0.0 | 0.00 | 0.00 | 0.00 | 84 | 1015.4 |
| 20260902093009 | 74 | 103 | 0.0 | 0.0 | 0.00 | 0.00 | 0.00 | 83 | 1016.2 |
| 20260902092234 | 74 | 100 | 0.0 | 0.0 | 0.00 | 0.00 | 0.00 | 84 | 1015.5 |
| 20260902091517 | 74 | 103 | 0.0 | 0.0 | 0.00 | 0.00 | 0.00 | 82 | 1016.2 |
| 20260902091202 | 75 | 100 | 0.0 | 0.0 | 0.00 | 0.00 | 0.00 | 82 | 1015.6 |
| 20260902090207 | 75 | 100 | 0.0 | 0.0 | 0.00 | 0.00 | 0.00 | 82 | 1015.5 |
| 20260902090027 | 75 | 103 | 0.0 | 0.0 | 0.00 | 0.00 | 0.00 | 81 | 1016.3 |
| 20260902085227 | 75 | 100 | 0.0 | 0.0 | 0.00 | 0.00 | 0.00 | 81 | 1015.5 |
| 20260902084528 | 75 | 103 | 0.0 | 0.0 | 0.00 | 0.00 | 0.00 | 79 | 1016.3 |
| 20260902084157 | 76 | 100 | 0.0 | 0.0 | 0.00 | 0.00 | 0.00 | 80 | 1015.5 |
| 20260902083206 | 77 | 100 | 0.0 | 0.0 | 0.00 | 0.00 | 0.00 | 79 | 1015.5 |
| 20260902083026 | 77 | 103 | 0.0 | 2.0 | 0.00 | 0.00 | 0.00 | 78 | 1016.2 |
| 20260902082227 | 78 | 100 | 0.0 | 0.0 | 0.00 | 0.00 | 0.00 | 77 | 1015.5 |
| 20260902081531 | 78 | 103 | 0.0 | 2.0 | 0.00 | 0.00 | 0.00 | 75 | 1016.4 |
| 20260902081233 | 79 | 100 | 0.0 | 0.0 | 0.00 | 0.00 | 0.00 | 75 | 1015.6 |
| 20260902080247 | 79 | 105 | 0.0 | 1.0 | 0.00 | 0.00 | 0.00 | 74 | 1015.6 |
| 20260902080018 | 79 | 109 | 0.0 | 3.0 | 0.00 | 0.00 | 0.00 | 73 | 1016.5 |
| 20260902075234 | 79 | 82 | 0.0 | 1.0 | 0.00 | 0.00 | 0.00 | 74 | 1015.6 |
| 20260902074522 | 79 | 173 | 0.0 | 4.0 | 0.00 | 0.00 | 0.00 | 73 | 1016.4 |
| 20260902074245 | 79 | 176 | 0.0 | 2.0 | 0.00 | 0.00 | 0.00 | 74 | 1015.7 |
| 20260902073218 | 78 | 87 | 0.0 | 0.0 | 0.00 | 0.00 | 0.00 | 76 | 1015.6 |
| 20260902073013 | 77 | 121 | 0.0 | 2.0 | 0.00 | 0.00 | 0.00 | 76 | 1016.5 |
| 20260902072221 | 78 | 119 | 0.0 | 0.0 | 0.00 | 0.00 | 0.00 | 77 | 1015.5 |
| 20260902071531 | 77 | 152 | 0.0 | 0.0 | 0.00 | 0.00 | 0.00 | 77 | 1016.5 |
| 20260902071246 | 78 | 150 | 0.0 | 0.0 | 0.00 | 0.00 | 0.00 | 76 | 1015.6 |
| 20260902070244 | 78 | 150 | 0.0 | 0.0 | 0.00 | 0.00 | 0.00 | 76 | 1015.6 |
| 20260902070030 | 78 | 152 | 0.0 | 0.0 | 0.00 | 0.00 | 0.00 | 76 | 1016.3 |
| 20260902065220 | 79 | 150 | 0.0 | 0.0 | 0.00 | 0.00 | 0.00 | 75 | 1015.5 |
| 20260902064531 | 78 | 152 | 0.0 | 0.0 | 0.00 | 0.00 | 0.00 | 74 | 1016.4 |
| 20260902064203 | 79 | 150 | 0.0 | 0.0 | 0.00 | 0.00 | 0.00 | 75 | 1015.5 |
| 20260902063134 | 79 | 150 | 0.0 | 0.0 | 0.00 | 0.00 | 0.00 | 73 | 1015.6 |
| 20260902063028 | 79 | 152 | 0.0 | 0.0 | 0.00 | 0.00 | 0.00 | 73 | 1016.4 |
| 20260902062112 | 80 | 150 | 0.0 | 0.0 | 0.00 | 0.00 | 0.00 | 71 | 1015.6 |
| 20260902061541 | 80 | 152 | 0.0 | 3.0 | 0.00 | 0.00 | 0.00 | 70 | 1016.3 |
| 20260902061110 | 81 | 116 | 0.0 | 0.0 | 0.00 | 0.00 | 0.00 | 70 | 1015.6 |
| 20260902060119 | 81 | 108 | 0.0 | 1.0 | 0.00 | 0.00 | 0.00 | 70 | 1015.5 |
| 20260902060030 | 81 | 111 | 0.0 | 2.0 | 0.00 | 0.00 | 0.00 | 69 | 1016.2 |
| 20260902055052 | 82 | 148 | 0.0 | 0.0 | 0.00 | 0.00 | 0.00 | 69 | 1015.4 |
| 20260902054533 | 82 | 150 | 0.0 | 2.0 | 0.00 | 0.00 | 0.00 | 67 | 1016.1 |
| 20260902054027 | 82 | 148 | 0.0 | 0.0 | 0.00 | 0.00 | 0.00 | 67 | 1015.4 |
| 20260902053019 | 82 | 136 | 1.0 | 3.0 | 0.00 | 0.00 | 0.00 | 66 | 1016.1 |
| 20260902053016 | 83 | 134 | 0.0 | 3.0 | 0.00 | 0.00 | 0.00 | 67 | 1015.2 |
| 20260902052001 | 83 | 139 | 0.0 | 3.0 | 0.00 | 0.00 | 0.00 | 67 | 1015.2 |
| 20260902051515 | 82 | 201 | 0.0 | 4.0 | 0.00 | 0.00 | 0.00 | 66 | 1016.0 |
| 20260902051003 | 83 | 133 | 0.0 | 3.0 | 0.00 | 0.00 | 0.00 | 67 | 1015.3 |
| 20260902050043 | 83 | 122 | 0.0 | 4.0 | 0.00 | 0.00 | 0.00 | 66 | 1016.1 |
| 20260902050008 | 83 | 120 | 0.0 | 0.0 | 0.00 | 0.00 | 0.00 | 67 | 1015.4 |
| 20260902045004 | 84 | 127 | 0.0 | 4.0 | 0.00 | 0.00 | 0.00 | 66 | 1015.3 |
| 20260902044533 | 83 | 155 | 0.0 | 6.0 | 0.00 | 0.00 | 0.00 | 66 | 1016.0 |
| 20260902043030 | 84 | 175 | 0.0 | 7.0 | 0.00 | 0.00 | 0.00 | 65 | 1016.0 |
| 20260902042902 | 84 | 129 | 0.0 | 5.0 | 0.00 | 0.00 | 0.00 | 65 | 1015.2 |
| 20260902041923 | 85 | 136 | 1.0 | 5.0 | 0.00 | 0.00 | 0.00 | 64 | 1015.1 |
| 20260902041537 | 84 | 168 | 1.0 | 7.0 | 0.00 | 0.00 | 0.00 | 63 | 1015.8 |
| 20260902040024 | 84 | 136 | 2.0 | 6.0 | 0.00 | 0.00 | 0.00 | 62 | 1015.8 |
| 20260902035756 | 85 | 117 | 1.0 | 5.0 | 0.00 | 0.00 | 0.00 | 63 | 1015.1 |
| 20260902034724 | 85 | 146 | 1.0 | 5.0 | 0.00 | 0.00 | 0.00 | 61 | 1015.1 |
| 20260902034524 | 85 | 153 | 1.0 | 7.0 | 0.00 | 0.00 | 0.00 | 61 | 1015.9 |
| 20260902033716 | 86 | 121 | 0.0 | 4.0 | 0.00 | 0.00 | 0.00 | 61 | 1015.0 |
| 20260902033017 | 85 | 130 | 0.0 | 3.0 | 0.00 | 0.00 | 0.00 | 60 | 1015.5 |
| 20260902032644 | 86 | 117 | 0.0 | 5.0 | 0.00 | 0.00 | 0.00 | 60 | 1014.7 |
| 20260902031618 | 86 | 106 | 0.0 | 5.0 | 0.00 | 0.00 | 0.00 | 59 | 1014.6 |
| 20260902031514 | 86 | 155 | 0.0 | 7.0 | 0.00 | 0.00 | 0.00 | 59 | 1015.3 |
| 20260902030623 | 86 | 117 | 0.0 | 4.0 | 0.00 | 0.00 | 0.00 | 59 | 1014.6 |
| 20260902030013 | 86 | 135 | 2.0 | 3.0 | 0.00 | 0.00 | 0.00 | 58 | 1015.1 |
| 20260902025626 | 86 | 129 | 0.0 | 3.0 | 0.00 | 0.00 | 0.00 | 59 | 1014.4 |
| 20260902024633 | 86 | 136 | 0.0 | 2.0 | 0.00 | 0.00 | 0.00 | 59 | 1014.1 |
| 20260902024511 | 86 | 171 | 1.0 | 3.0 | 0.00 | 0.00 | 0.00 | 58 | 1014.8 |
| 20260902023639 | 87 | 122 | 0.0 | 1.0 | 0.00 | 0.00 | 0.00 | 59 | 1013.9 |
| 20260902023016 | 86 | 156 | 1.0 | 3.0 | 0.00 | 0.00 | 0.00 | 58 | 1014.6 |
| 20260902022644 | 86 | 103 | 0.0 | 1.0 | 0.00 | 0.00 | 0.00 | 60 | 1013.9 |
| 20260902021647 | 86 | 126 | 0.0 | 1.0 | 0.00 | 0.00 | 0.00 | 60 | 1013.8 |
| 20260902021530 | 85 | 149 | 0.0 | 0.0 | 0.00 | 0.00 | 0.00 | 59 | 1014.4 |
| 20260902020035 | 86 | 149 | 0.0 | 0.0 | 0.00 | 0.00 | 0.00 | 60 | 1014.2 |
| 20260902015510 | 87 | 148 | 0.0 | 0.0 | 0.00 | 0.00 | 0.00 | 59 | 1013.4 |
| 20260902014538 | 86 | 149 | 0.0 | 2.0 | 0.00 | 0.00 | 0.00 | 59 | 1013.9 |
| 20260902014445 | 87 | 148 | 0.0 | 0.0 | 0.00 | 0.00 | 0.00 | 59 | 1013.2 |
| 20260902013439 | 87 | 155 | 0.0 | 1.0 | 0.00 | 0.00 | 0.00 | 56 | 1013.2 |
| 20260902013030 | 87 | 145 | 0.0 | 2.0 | 0.00 | 0.00 | 0.00 | 54 | 1013.9 |
| 20260902012451 | 88 | 136 | 0.0 | 1.0 | 0.00 | 0.00 | 0.00 | 55 | 1013.1 |
| 20260902011526 | 85 | 156 | 0.0 | 2.0 | 0.00 | 0.00 | 0.00 | 57 | 1013.8 |
| 20260902010321 | 87 | 126 | 0.0 | 0.0 | 0.00 | 0.00 | 0.00 | 56 | 1012.8 |
| 20260902010031 | 87 | 128 | 0.0 | 0.0 | 0.00 | 0.00 | 0.00 | 54 | 1013.6 |
| 20260902005310 | 88 | 126 | 0.0 | 0.0 | 0.00 | 0.00 | 0.00 | 53 | 1012.8 |
| 20260902004517 | 90 | 128 | 0.0 | 2.0 | 0.00 | 0.00 | 0.00 | 49 | 1013.6 |
| 20260902004310 | 91 | 126 | 0.0 | 0.0 | 0.00 | 0.00 | 0.00 | 49 | 1012.7 |
| 20260902003012 | 91 | 144 | 0.0 | 4.0 | 0.00 | 0.00 | 0.00 | 46 | 1013.7 |
| 20260902002206 | 92 | 124 | 0.0 | 3.0 | 0.00 | 0.00 | 0.00 | 47 | 1012.8 |
| 20260902001530 | 92 | 134 | 1.0 | 4.0 | 0.00 | 0.00 | 0.00 | 43 | 1013.5 |
| 20260902001226 | 93 | 135 | 0.0 | 3.0 | 0.00 | 0.00 | 0.00 | 44 | 1012.7 |
| 20260902000235 | 93 | 177 | 0.0 | 2.0 | 0.00 | 0.00 | 0.00 | 44 | 1012.8 |
| 20260902000041 | 93 | 160 | 1.0 | 3.0 | 0.00 | 0.00 | 0.00 | 43 | 1013.6 |
| 20260901235253 | 93 | 120 | 0.0 | 3.0 | 0.00 | 0.00 | 0.00 | 44 | 1012.8 |
| 20260901234527 | 93 | 140 | 0.0 | 3.0 | 0.00 | 0.00 | 0.00 | 42 | 1013.6 |
| 20260901234220 | 94 | 157 | 0.0 | 2.0 | 0.00 | 0.00 | 0.00 | 43 | 1012.9 |
| 20260901233240 | 94 | 108 | 0.0 | 3.0 | 0.00 | 0.00 | 0.00 | 42 | 1012.8 |
| 20260901233034 | 94 | 151 | 1.0 | 2.0 | 0.00 | 0.00 | 0.00 | 43 | 1013.6 |
| 20260901232252 | 94 | 161 | 0.0 | 1.0 | 0.00 | 0.00 | 0.00 | 42 | 1012.8 |
| 20260901231526 | 94 | 132 | 0.0 | 2.0 | 0.00 | 0.00 | 0.00 | 44 | 1013.6 |
| 20260901231303 | 94 | 88 | 0.0 | 1.0 | 0.00 | 0.00 | 0.00 | 43 | 1012.8 |
| 20260901230030 | 93 | 178 | 0.0 | 3.0 | 0.00 | 0.00 | 0.00 | 45 | 1013.7 |
| 20260901225118 | 94 | 160 | 0.0 | 3.0 | 0.00 | 0.00 | 0.00 | 45 | 1013.0 |
| 20260901224522 | 93 | 140 | 1.0 | 3.0 | 0.00 | 0.00 | 0.00 | 44 | 1013.8 |
| 20260901224044 | 94 | 113 | 0.0 | 1.0 | 0.00 | 0.00 | 0.00 | 45 | 1013.0 |
| 20260901223040 | 94 | 131 | 0.0 | 1.0 | 0.00 | 0.00 | 0.00 | 45 | 1012.9 |
| 20260901223037 | 93 | 128 | 0.0 | 2.0 | 0.00 | 0.00 | 0.00 | 46 | 1013.8 |
| 20260901222020 | 93 | 126 | 0.0 | 3.0 | 0.00 | 0.00 | 0.00 | 44 | 1013.0 |
| 20260901221512 | 94 | 140 | 1.0 | 4.0 | 0.00 | 0.00 | 0.00 | 42 | 1013.8 |
| 20260901220954 | 95 | 146 | 0.0 | 3.0 | 0.00 | 0.00 | 0.00 | 41 | 1013.0 |
| 20260901220009 | 94 | 139 | 1.0 | 3.0 | 0.00 | 0.00 | 0.00 | 40 | 1013.9 |
| 20260901215946 | 95 | 159 | 0.0 | 2.0 | 0.00 | 0.00 | 0.00 | 41 | 1013.1 |
| 20260901214508 | 92 | 107 | 0.0 | 2.0 | 0.00 | 0.00 | 0.00 | 46 | 1013.9 |
| 20260901213843 | 92 | 211 | 0.0 | 0.0 | 0.00 | 0.00 | 0.00 | 49 | 1013.2 |
| 20260901213036 | 93 | 317 | 0.0 | 2.0 | 0.00 | 0.00 | 0.00 | 44 | 1014.1 |
| 20260901212824 | 94 | 323 | 0.0 | 6.0 | 0.00 | 0.00 | 0.00 | 43 | 1013.3 |
| 20260901211836 | 95 | 53 | 0.0 | 0.0 | 0.00 | 0.00 | 0.00 | 42 | 1013.4 |
| 20260901211530 | 95 | 117 | 1.0 | 8.0 | 0.00 | 0.00 | 0.00 | 42 | 1014.1 |
| 20260901210858 | 95 | 139 | 0.0 | 4.0 | 0.00 | 0.00 | 0.00 | 41 | 1013.5 |
| 20260901210035 | 95 | 122 | 2.0 | 4.0 | 0.00 | 0.00 | 0.00 | 40 | 1014.4 |
| 20260901205839 | 96 | 174 | 0.0 | 5.0 | 0.00 | 0.00 | 0.00 | 40 | 1013.6 |
| 20260901204841 | 95 | 300 | 0.0 | 5.0 | 0.00 | 0.00 | 0.00 | 42 | 1013.7 |
| 20260901204528 | 95 | 156 | 0.0 | 7.0 | 0.00 | 0.00 | 0.00 | 42 | 1014.6 |
| 20260901203019 | 95 | 125 | 2.0 | 6.0 | 0.00 | 0.00 | 0.00 | 42 | 1014.9 |
| 20260901202736 | 95 | 58 | 0.0 | 1.0 | 0.00 | 0.00 | 0.00 | 44 | 1014.1 |
| 20260901201704 | 95 | 141 | 0.0 | 1.0 | 0.00 | 0.00 | 0.00 | 44 | 1014.2 |
| 20260901201516 | 94 | 294 | 0.0 | 2.0 | 0.00 | 0.00 | 0.00 | 44 | 1015.1 |
| 20260901200718 | 95 | 179 | 0.0 | 2.0 | 0.00 | 0.00 | 0.00 | 43 | 1014.4 |
| 20260901200036 | 94 | 284 | 1.0 | 2.0 | 0.00 | 0.00 | 0.00 | 43 | 1015.5 |
| 20260901194604 | 95 | 30 | 1.0 | 5.0 | 0.00 | 0.00 | 0.00 | 45 | 1014.8 |
| 20260901194511 | 94 | 236 | 0.0 | 7.0 | 0.00 | 0.00 | 0.00 | 44 | 1015.7 |
| 20260901193556 | 94 | 65 | 0.0 | 3.0 | 0.00 | 0.00 | 0.00 | 43 | 1014.8 |
| 20260901193028 | 94 | 59 | 1.0 | 4.0 | 0.00 | 0.00 | 0.00 | 42 | 1015.8 |
| 20260901192550 | 94 | 134 | 0.0 | 6.0 | 0.00 | 0.00 | 0.00 | 42 | 1014.9 |
| 20260901191535 | 94 | 195 | 1.0 | 8.0 | 0.00 | 0.00 | 0.00 | 43 | 1016.0 |
| 20260901191520 | 94 | 175 | 1.0 | 6.0 | 0.00 | 0.00 | 0.00 | 43 | 1015.1 |
| 20260901190041 | 94 | 160 | 4.0 | 9.0 | 0.00 | 0.00 | 0.00 | 43 | 1016.1 |
| 20260901185301 | 95 | 168 | 0.0 | 4.0 | 0.00 | 0.00 | 0.00 | 45 | 1015.4 |
| 20260901184527 | 93 | 329 | 1.0 | 7.0 | 0.00 | 0.00 | 0.00 | 44 | 1016.4 |
| 20260901184318 | 93 | 136 | 1.0 | 4.0 | 0.00 | 0.00 | 0.00 | 45 | 1015.6 |
| 20260901183315 | 96 | 119 | 0.0 | 7.0 | 0.00 | 0.00 | 0.00 | 43 | 1015.7 |
| 20260901183022 | 95 | 336 | 0.0 | 7.0 | 0.00 | 0.00 | 0.00 | 48 | 1016.5 |
| 20260901182333 | 95 | 124 | 0.0 | 7.0 | 0.00 | 0.00 | 0.00 | 45 | 1015.8 |
| 20260901181537 | 94 | 92 | 0.0 | 6.0 | 0.00 | 0.00 | 0.00 | 45 | 1016.8 |
| 20260901180117 | 93 | 218 | 1.0 | 4.0 | 0.00 | 0.00 | 0.00 | 48 | 1016.2 |
| 20260901180026 | 93 | 107 | 2.0 | 6.0 | 0.00 | 0.00 | 0.00 | 47 | 1017.1 |
| 20260901175120 | 93 | 119 | 0.0 | 4.0 | 0.00 | 0.00 | 0.00 | 48 | 1016.3 |
| 20260901174514 | 92 | 107 | 2.0 | 5.0 | 0.00 | 0.00 | 0.00 | 49 | 1017.4 |
| 20260901174144 | 92 | 15 | 0.0 | 3.0 | 0.00 | 0.00 | 0.00 | 52 | 1016.5 |
| 20260901173135 | 93 | 199 | 0.0 | 3.0 | 0.00 | 0.00 | 0.00 | 48 | 1016.6 |
| 20260901173037 | 93 | 132 | 2.0 | 4.0 | 0.00 | 0.00 | 0.00 | 45 | 1017.4 |
| 20260901172123 | 93 | 204 | 1.0 | 5.0 | 0.00 | 0.00 | 0.00 | 50 | 1016.7 |
| 20260901171529 | 91 | 202 | 1.0 | 6.0 | 0.00 | 0.00 | 0.00 | 51 | 1017.6 |
| 20260901171116 | 92 | 131 | 0.0 | 5.0 | 0.00 | 0.00 | 0.00 | 53 | 1016.8 |
| 20260901170057 | 91 | 201 | 0.0 | 4.0 | 0.00 | 0.00 | 0.00 | 52 | 1016.9 |
| 20260901165119 | 91 | 195 | 0.0 | 4.0 | 0.00 | 0.00 | 0.00 | 47 | 1017.0 |
| 20260901164527 | 91 | 208 | 1.0 | 6.0 | 0.00 | 0.00 | 0.00 | 51 | 1017.9 |
| 20260901164138 | 93 | 139 | 0.0 | 5.0 | 0.00 | 0.00 | 0.00 | 51 | 1017.0 |
| 20260901163140 | 91 | 295 | 1.0 | 5.0 | 0.00 | 0.00 | 0.00 | 51 | 1017.1 |
| 20260901163025 | 90 | 145 | 2.0 | 7.0 | 0.00 | 0.00 | 0.00 | 53 | 1018.0 |
| 20260901162145 | 92 | 141 | 0.0 | 2.0 | 0.00 | 0.00 | 0.00 | 52 | 1017.1 |
| 20260901161524 | 91 | 10 | 0.0 | 4.0 | 0.00 | 0.00 | 0.00 | 54 | 1018.0 |
| 20260901161144 | 89 | 114 | 0.0 | 3.0 | 0.00 | 0.00 | 0.00 | 52 | 1017.2 |
| 20260901160136 | 89 | 133 | 0.0 | 2.0 | 0.00 | 0.00 | 0.00 | 56 | 1017.2 |
| 20260901160029 | 90 | 150 | 1.0 | 3.0 | 0.00 | 0.00 | 0.00 | 56 | 1018.0 |
| 20260901155146 | 89 | 123 | 0.0 | 2.0 | 0.00 | 0.00 | 0.00 | 57 | 1017.2 |
| 20260901154513 | 88 | 224 | 1.0 | 3.0 | 0.00 | 0.00 | 0.00 | 59 | 1017.9 |
| 20260901154206 | 89 | 319 | 0.0 | 2.0 | 0.00 | 0.00 | 0.00 | 61 | 1017.2 |
| 20260901153209 | 88 | 289 | 0.0 | 0.0 | 0.00 | 0.00 | 0.00 | 61 | 1017.0 |
| 20260901153044 | 87 | 319 | 0.0 | 2.0 | 0.00 | 0.00 | 0.00 | 61 | 1017.9 |
| 20260901152150 | 89 | 292 | 0.0 | 1.0 | 0.00 | 0.00 | 0.00 | 63 | 1017.0 |
| 20260901151532 | 87 | 269 | 0.0 | 2.0 | 0.00 | 0.00 | 0.00 | 62 | 1017.9 |
| 20260901151118 | 87 | 9 | 0.0 | 0.0 | 0.00 | 0.00 | 0.00 | 64 | 1017.1 |
| 20260901150052 | 85 | 35 | 0.0 | 2.0 | 0.00 | 0.00 | 0.00 | 66 | 1017.1 |
| 20260901150031 | 85 | 96 | 1.0 | 3.0 | 0.00 | 0.00 | 0.00 | 66 | 1018.0 |
| 20260901145115 | 85 | 127 | 0.0 | 1.0 | 0.00 | 0.00 | 0.00 | 68 | 1017.1 |
| 20260901144531 | 84 | 333 | 0.0 | 3.0 | 0.00 | 0.00 | 0.00 | 70 | 1018.0 |
| 20260901144056 | 84 | 66 | 0.0 | 2.0 | 0.00 | 0.00 | 0.00 | 71 | 1017.2 |
| 20260901143105 | 84 | 122 | 0.0 | 1.0 | 0.00 | 0.00 | 0.00 | 72 | 1017.1 |
| 20260901143031 | 84 | 261 | 0.0 | 2.0 | 0.00 | 0.00 | 0.00 | 73 | 1017.8 |
| 20260901142057 | 83 | 138 | 0.0 | 1.0 | 0.00 | 0.00 | 0.00 | 77 | 1017.1 |
| 20260901141535 | 82 | 156 | 0.0 | 2.0 | 0.00 | 0.00 | 0.00 | 76 | 1017.7 |
| 20260901140029 | 80 | 177 | 0.0 | 2.0 | 0.00 | 0.00 | 0.00 | 81 | 1017.9 |